Location: Miles
(41.4492°N, 81.6087°W)
Time: 19:16:14
(UTC+00:00)

Tiros 1 despin weight - Pass Details

Date: 21 September 2024
Orbit: 573 x 615 km, 48.2° (Epoch: 04 October)

Event Time Altitude Azimuth Distance (km) Brightness Sun altitude
Rises 09:26:13 0° 289° (WNW) 2,874 - -20.5°
Reaches altitude 10° 09:28:40 10° 299° (WNW) 1,974 - -20.1°
Exits shadow 09:30:35 22° 315° (NW) 1,358 ? -19.7°
Maximum altitude 09:32:52 36° 6° (N) 989 ? -19.3°
Drops below altitude 10° 09:37:05 10° 73° (ENE) 1,981 ? -18.6°
Sets 09:39:33 0° 82° (E) 2,885 ? -18.1°
